Weather History for KSUU - March, 2013

Change the Weather History Date:

Monday, March 18, 2013

  Actual Average Record
Temperature  
Mean Temperature 54 °F -  
Max Temperature 69 °F 65 °F 82 °F (2004)
Min Temperature 41 °F 44 °F 37 °F (2002)
Degree Days  
Heating Degree Days 10    
Growing Degree Days 4 (Base 50)    
Moisture  
Dew Point 46 °F    
Average Humidity 68    
Maximum Humidity 100    
Minimum Humidity 40    
Precipitation  
Precipitation 0.00 in - - ()
Sea Level Pressure  
Sea Level Pressure 30.06 in    
Wind  
Wind Speed 8 mph (WSW)    
Max Wind Speed 20 mph    
Max Gust Speed -    
Visibility 10 miles    
Events Rain    
Averages and records for this station are not official NWS values.
T = Trace of Precipitation, MM = Missing Value Source: NWS Daily Summary

Daily Weather History Graph

Daily Weather History Graph

Search for Another Location

Airport or City:

Trip Planner

Search our weather history database for the weather conditions in past years. The results will help you decide how hot, cold, wet, or windy it might be!

Date:

Astronomy

Mar. 18, 2013 Rise Set
Actual Time 7:13 AM PDT 7:18 PM PDT
Civil Twilight 6:47 AM PDT 7:44 PM PDT
Nautical Twilight 6:16 AM PDT 8:15 PM PDT
Astronomical Twilight 5:45 AM PDT 8:46 PM PDT
Moon 11:22 AM PDT (3/18) 1:17 AM PDT (3/18)
Length of Visible Light 12h 57m
Length of Day
12h 04m
Waxing Crescent, 41% of the Moon is Illuminated
Mar 18
Waxing Crescent
Mar 19
First Quarter
Mar 27
Full
Apr 2
Last Quarter
Apr 10
New

Hourly Weather History & Observations

Time (PDT) Temp. Windchill Dew Point Humidity Pressure Visibility Wind Dir Wind Speed Gust Speed Precip Events Conditions
12:58 AM 49.5 °F - 47.7 °F 94% 30.06 in 10.0 mi SW 10.4 mph - N/A   Clear
1:58 AM 49.1 °F - 48.7 °F 99% 30.06 in 10.0 mi WSW 12.7 mph - N/A   Clear
2:58 AM 48.7 °F - 48.4 °F 99% 30.05 in 10.0 mi SW 10.4 mph - N/A   Clear
3:58 AM 47.1 °F - 46.9 °F 99% 30.04 in 10.0 mi SW 8.1 mph - N/A   Clear
4:58 AM 44.6 °F 40.7 °F 44.4 °F 99% 30.04 in 10.0 mi WSW 6.9 mph - N/A   Clear
5:58 AM 43.2 °F 39.0 °F 43.0 °F 99% 30.05 in 10.0 mi West 6.9 mph - N/A   Clear
6:58 AM 41.7 °F 39.8 °F 41.5 °F 99% 30.08 in 10.0 mi SSW 3.5 mph - N/A   Clear
7:58 AM 44.6 °F - 44.6 °F 100% 30.10 in 10.0 mi WSW 1.2 mph - N/A   Clear
8:58 AM 51.1 °F - 49.3 °F 94% 30.11 in 10.0 mi SSW 2.3 mph - N/A   Clear
9:58 AM 56.3 °F - 48.7 °F 76% 30.12 in 10.0 mi West 1.2 mph - N/A   Clear
10:58 AM 60.1 °F - 46.9 °F 62% 30.12 in 10.0 mi Variable 1.2 mph - N/A   Partly Cloudy
11:58 AM 64.2 °F - 42.6 °F 45% 30.11 in 10.0 mi NE 6.9 mph - N/A   Partly Cloudy
12:58 PM 66.2 °F - 44.1 °F 45% 30.10 in 10.0 mi NNE 3.5 mph - N/A   Partly Cloudy
1:58 PM 67.5 °F - 42.8 °F 41% 30.07 in 10.0 mi North 2.3 mph - N/A   Mostly Cloudy
2:58 PM 68.5 °F - 43.3 °F 40% 30.04 in 10.0 mi SW 3.5 mph - N/A   Scattered Clouds
3:14 PM 68.0 °F - 42.8 °F 40% 30.02 in 10.0 mi WSW 5.8 mph - N/A Rain Light Rain
3:19 PM 68.0 °F - 44.6 °F 43% 30.02 in 10.0 mi SW 8.1 mph - N/A   Scattered Clouds
3:30 PM 68.0 °F - 46.4 °F 46% 30.02 in 10.0 mi SW 6.9 mph - N/A Rain Light Rain
3:38 PM 68.0 °F - 46.4 °F 46% 30.02 in 10.0 mi WSW 8.1 mph - N/A   Scattered Clouds
3:58 PM 67.3 °F - 46.0 °F 46% 30.04 in 10.0 mi SW 8.1 mph - 0.00 in   Scattered Clouds
4:58 PM 66.9 °F - 46.8 °F 48% 30.04 in 10.0 mi WSW 9.2 mph - N/A   Scattered Clouds
5:58 PM 64.9 °F - 45.1 °F 49% 30.02 in 10.0 mi SW 5.8 mph - N/A   Partly Cloudy
6:58 PM 62.1 °F - 45.1 °F 54% 30.03 in 10.0 mi SW 8.1 mph - N/A   Scattered Clouds
7:58 PM 60.8 °F - 44.6 °F 55% 30.05 in 10.0 mi West 16.1 mph - N/A   Scattered Clouds
8:58 PM 60.1 °F - 45.0 °F 57% 30.06 in 10.0 mi SW 12.7 mph - N/A   Clear
9:58 PM 56.5 °F - 47.1 °F 71% 30.07 in 10.0 mi WSW 19.6 mph - N/A   Scattered Clouds
10:58 PM 53.8 °F - 48.0 °F 81% 30.08 in 10.0 mi WSW 15.0 mph - N/A   Clear
11:58 PM 52.5 °F - 47.7 °F 84% 30.07 in 10.0 mi SW 12.7 mph - N/A   Clear